Mitchell, SD

12:11 PM CST on December 15, 2019 (GMT -0600)
Mitchell Municipal

Weather History for KMHE - May, 2019

Change the Weather History Date:

Friday, May 3, 2019

  Actual Average Record
Temperature  
Mean Temperature 56 °F 55 °F  
Max Temperature 67 °F 68 °F 92 °F (1918)
Min Temperature 45 °F 43 °F 18 °F (1967)
Degree Days  
Heating Degree Days 9 10  
Month to date heating degree days 48 31  
Since 1 July heating degree days 7736 7031  
Cooling Degree Days 0 0  
Month to date cooling degree days 0 0  
Year to date cooling degree days 0 2  
Growing Degree Days 4 (Base 50)    
Moisture  
Dew Point 41 °F    
Average Humidity 56    
Maximum Humidity 71    
Minimum Humidity 40    
Precipitation  
Precipitation T in 0.09 in 1.42 in (1944)
Month to date precipitation 0.01 0.27  
Year to date precipitation 7.59 4.07  
Snow  
Snow 0.00 in - T in (1954)
Month to date snowfall 0.0  
Since 1 July snowfall 67.6  
Snow Depth 0.00 in    
Sea Level Pressure  
Sea Level Pressure 29.97 in    
Wind  
Wind Speed 9 mph (SW)    
Max Wind Speed 26 mph    
Max Gust Speed 38 mph    
Visibility 10 miles    
Events      
T = Trace of Precipitation, MM = Missing Value Source: NWS Daily Summary

Daily Weather History Graph

Daily Weather History Graph

Search for Another Location

Airport or City:

Astronomy

May. 03, 2019 Rise Set
Actual Time 6:21 AM CDT 8:37 PM CDT
Civil Twilight 5:50 AM CDT 9:08 PM CDT
Nautical Twilight 5:10 AM CDT 9:48 PM CDT
Astronomical Twilight 4:27 AM CDT 10:32 PM CDT
Moon 6:09 AM CDT (5/3) 7:21 PM CDT (5/3)
Length of Visible Light 15h 18m
Length of Day
14h 15m
Waning Crescent, 2% of the Moon is Illuminated
May 3
Waning Crescent
May 4
New
May 11
First Quarter
May 18
Full
May 26
Last Quarter

Hourly Weather History & Observations

Time (CDT) Temp. Windchill Dew Point Humidity Pressure Visibility Wind Dir Wind Speed Gust Speed Precip Events Conditions
12:53 AM 48.0 °F - 39.0 °F 71% 30.06 in 10.0 mi SE 9.2 mph - 0.00 in   Clear
1:53 AM 48.0 °F - 39.9 °F 74% 30.06 in 10.0 mi East 6.9 mph - 0.00 in   Overcast
2:53 AM 48.0 °F - 39.0 °F 71% 30.03 in 10.0 mi SE 10.4 mph - N/A   Scattered Clouds
3:53 AM 46.9 °F - 37.0 °F 68% 30.01 in 10.0 mi SE 10.4 mph - N/A   Clear
4:53 AM 46.0 °F 40.2 °F 37.0 °F 71% 29.99 in 10.0 mi SSE 12.7 mph - N/A   Clear
5:53 AM 45.0 °F 38.2 °F 36.0 °F 71% 29.98 in 10.0 mi SSE 15.0 mph - N/A   Clear
6:53 AM 45.0 °F 38.5 °F 36.0 °F 71% 29.98 in 10.0 mi SSE 13.8 mph - N/A   Partly Cloudy
7:53 AM 48.0 °F - 37.9 °F 68% 29.99 in 10.0 mi South 13.8 mph 23.0 mph N/A   Mostly Cloudy
8:53 AM 51.1 °F - 39.9 °F 66% 29.97 in 10.0 mi South 13.8 mph 20.7 mph N/A   Partly Cloudy
9:53 AM 57.9 °F - 43.0 °F 58% 29.94 in 10.0 mi SW 20.7 mph 28.8 mph N/A   Clear
10:53 AM 61.0 °F - 44.1 °F 54% 29.94 in 10.0 mi SW 17.3 mph 31.1 mph N/A   Clear
11:53 AM 63.0 °F - 44.1 °F 50% 29.96 in 10.0 mi SW 16.1 mph 23.0 mph N/A   Mostly Cloudy
12:53 PM 64.0 °F - 46.0 °F 52% 29.95 in 10.0 mi West 10.4 mph 20.7 mph N/A   Mostly Cloudy
1:53 PM 63.0 °F - 45.0 °F 52% 29.94 in 10.0 mi NW 11.5 mph - N/A   Mostly Cloudy
2:53 PM 63.0 °F - 45.0 °F 52% 29.95 in 10.0 mi NW 5.8 mph - N/A   Mostly Cloudy
3:53 PM 64.9 °F - 43.0 °F 45% 29.94 in 10.0 mi NW 8.1 mph - N/A   Partly Cloudy
4:53 PM 64.9 °F - 41.0 °F 42% 29.92 in 10.0 mi Variable 6.9 mph - N/A   Clear
5:53 PM 64.9 °F - 43.0 °F 45% 29.93 in 10.0 mi NNW 4.6 mph - N/A   Partly Cloudy
6:53 PM 64.9 °F - 39.9 °F 40% 29.94 in 10.0 mi NW 9.2 mph - N/A   Scattered Clouds
7:53 PM 63.0 °F - 41.0 °F 45% 29.94 in 10.0 mi North 5.8 mph - N/A   Partly Cloudy
8:53 PM 57.9 °F - 43.0 °F 58% 29.95 in 10.0 mi North 4.6 mph - N/A   Clear
9:53 PM 54.0 °F - 44.1 °F 69% 29.97 in 10.0 mi North 4.6 mph - N/A   Clear
10:53 PM 54.0 °F - 43.0 °F 66% 29.97 in 10.0 mi Calm Calm - N/A   Clear
11:53 PM 51.1 °F - 42.1 °F 71% 29.97 in 10.0 mi Calm Calm - N/A   Clear